Regional Weather Roundup
Issued by NWS Raleigh/Durham, NC

Home | Current Version | Previous Version | Text Only | Print | Product List | Glossary On
Versions: 1 2 3 4 5 6 7 8 9 10 11 12 13 14 15 16 17 18 19 20 21 22 23 24 25 26 27 28
000
ASUS42 KRAH 220710
RWRRAH
NORTH CAROLINA WEATHER ROUNDUP
NATIONAL WEATHER SERVICE RALEIGH NC
200 AM EST SUN JAN 22 2017

NOTE: "FAIR" INDICATES FEW OR NO CLOUDS BELOW 12,000 FEET WITH NO
SIGNIFICANT WEATHER AND/OR OBSTRUCTIONS TO VISIBILITY.

NCZ001-053-055-056-065-067-220800-
WESTERN NORTH CAROLINA

CITY           SKY/WX    TMP DP  RH WIND       PRES   REMARKS
ASHEVILLE      CLOUDY    52  50  93 CALM      29.68F FOG
JEFFERSON      FOG       48  48 100 W3        29.69S VSB 1/2
MORGANTON      CLOUDY    51  51 100 CALM      29.73R FOG
HICKORY        CLOUDY    53  53 100 CALM      29.68R FOG
RUTHERFORDTON  CLOUDY    52  52 100 CALM      29.70R FOG
MOUNT AIRY     CLOUDY    53  51  94 CALM      29.68F
BOONE          FOG       47  47 100 CALM      29.71R VSB 3/4
$$

NCZ021-022-025-041-071-084-088-220800-
CENTRAL NORTH CAROLINA

CITY           SKY/WX    TMP DP  RH WIND       PRES   REMARKS
CHARLOTTE      DRIZZLE   55  53  93 W3        29.69R
GREENSBORO     CLOUDY    52  52 100 NE8       29.66S
WINSTON-SALEM  CLOUDY    52  50  93 NE10      29.66F
RALEIGH-DURHAM FOG       54  53  97 N3        29.65R VSB 1/8
FORT BRAGG     CLOUDY    61  61 100 SW8       29.64R
FAYETTEVILLE   CLOUDY    62  60  93 SW10      29.64S
BURLINGTON     CLOUDY    53  53 100 N5        29.65F
LAURINBURG     CLOUDY    61  59  93 SW7       29.66R
$$

NCZ011-015-027-028-043-044-047-080-103-220800-
NORTHEASTERN NORTH CAROLINA

CITY           SKY/WX    TMP DP  RH WIND       PRES   REMARKS
ROCKY MT-WILSO FOG       55  55 100 CALM      29.63R VSB 1/4
GREENVILLE     FOG       55  55 100 CALM      29.67R VSB 1/2
WASHINGTON     FOG       54  54  99 CALM        N/A  VSB 1/2
ELIZABETH CITY FOG       56  56 100 SE6       29.60F VSB 1
MANTEO         DRIZZLE   55  55 100 CALM      29.63F
CAPE HATTERAS  CLOUDY    65  62  90 S12       29.62F FOG
$$

NCZ078-087-090-091-093-098-101-220800-
SOUTHEASTERN NORTH CAROLINA

CITY           SKY/WX    TMP DP  RH WIND       PRES   REMARKS
LUMBERTON      CLOUDY    60  59  96 SW8       29.65F
GOLDSBORO      FOG       55  55 100 CALM      29.61S VSB 1/2
KENANSVILLE    CLOUDY    63  59  88 SW7       29.64F
NEW BERN       CLOUDY    58  57  97 SW6       29.65R FOG
CHERRY POINT   MOCLDY    61  59  93 SW10      29.65R
BEAUFORT       CLOUDY    61  59  93 SW10G20   29.66
JACKSONVILLE   CLOUDY    62  59  90 SW12G22   29.65R
WILMINGTON     PTCLDY    59  58  96 SW10      29.67S
$$





USA.gov is the U.S. government's official web portal to all federal, state and local government web resources and services.